DW5375 Decatur Island WA US current weather conditions

sailwx.info

Wind from 198

Air temperature 12.8° C
Dewpoint 10.1° C

Last reported at 2019-Nov-15 23:00 UTC.
Time now 2019-Nov-15 23:40 UTC

Location: N 48°31' W 122°50'.
View on Google Maps.

See reports from other nearby stations

  
Tides and Currents Weather Stations Pressure Air Temp Water Temp Dewpoint Dewpoint Depression Visibility Wind Speed Wind Dir Waves Ship Positions
date/time (UTC)wind fromknots sea level pressurealtimeterstation pressurevisibilityair tempwater tempwave heightnotes
2019-Nov-15 23:00 198 12.8
2019-Nov-15 22:45 194 13.3
2019-Nov-15 22:30 195 13.9
2019-Nov-15 22:15 200 13.9
2019-Nov-15 21:46 196 13.9
2019-Nov-15 21:32 203 13.3
2019-Nov-15 21:17 199 12.8
2019-Nov-15 21:01 192 12.8
2019-Nov-15 20:47 360 13.3
2019-Nov-15 20:31 190 12.8
2019-Nov-15 20:16 200 11.7
2019-Nov-15 20:00 360 11.1
2019-Nov-15 19:46 360 11.1
2019-Nov-15 19:31 200 10.6
2019-Nov-15 19:16 157 10.0
2019-Nov-15 19:02 175 10.0
2019-Nov-15 18:46 360 10.0
2019-Nov-15 18:31 360 9.4
2019-Nov-15 18:15 198 9.4
2019-Nov-15 18:01 360 9.4
2019-Nov-15 17:46 360 9.4
2019-Nov-15 17:30 360 9.4
2019-Nov-15 17:15 193 9.4
2019-Nov-15 17:01 360 9.4
2019-Nov-15 16:46 360 9.4
2019-Nov-15 16:30 360 9.4
2019-Nov-15 16:15 360 9.4
2019-Nov-15 16:01 360 9.4
2019-Nov-15 15:45 176 9.4
2019-Nov-15 15:30 155 9.4
2019-Nov-15 15:15 169 9.4
2019-Nov-15 15:01 171 9.4
2019-Nov-15 14:45 181 9.4
2019-Nov-15 14:30 360 9.4
2019-Nov-15 14:15 153 9.4
2019-Nov-15 14:00 360 9.4
2019-Nov-15 13:45 157 9.4
2019-Nov-15 13:30 360 9.4
2019-Nov-15 13:15 360 9.4
2019-Nov-15 13:00 188 10.0
2019-Nov-15 12:46 186 10.0
2019-Nov-15 12:30 360 10.0
2019-Nov-15 12:15 183 10.6
2019-Nov-15 12:00 360 10.6
2019-Nov-15 11:45 192 11.1
2019-Nov-15 11:30 360 10.6
2019-Nov-15 11:15 360 10.6
2019-Nov-15 11:00 178 9.4
2019-Nov-15 10:47 360 9.4
2019-Nov-15 10:31 141 8.9
2019-Nov-15 10:18 360 8.3
2019-Nov-15 10:02 360 8.3
2019-Nov-15 09:46 360 8.3
2019-Nov-15 09:31 180 8.3
2019-Nov-15 09:16 179 7.8
2019-Nov-15 09:01 179 7.8
2019-Nov-15 08:46 179 7.8
2019-Nov-15 08:31 179 8.3
2019-Nov-15 08:16 179 8.3
2019-Nov-15 08:01 360 8.9
2019-Nov-15 07:46 192 8.9
2019-Nov-15 07:31 178 8.9
2019-Nov-15 07:16 172 8.9
2019-Nov-15 07:00 177 8.9
2019-Nov-15 06:45 184 8.3
2019-Nov-15 06:31 360 8.3
2019-Nov-15 06:16 360 8.3
2019-Nov-15 06:01 360 8.3
2019-Nov-15 05:46 184 8.3
2019-Nov-15 05:30 360 7.8
2019-Nov-15 05:16 360 8.3
2019-Nov-15 05:00 360 8.3
2019-Nov-15 04:45 360 8.3
2019-Nov-15 04:31 360 8.3
2019-Nov-15 04:15 360 8.3
2019-Nov-15 04:00 360 8.3
2019-Nov-15 03:45 360 8.3
2019-Nov-15 03:30 360 8.3
2019-Nov-15 03:15 360 8.3
2019-Nov-15 03:01 184 8.3
2019-Nov-15 02:45 184 8.3
2019-Nov-15 02:30 184 8.3
2019-Nov-15 02:15 184 8.9
2019-Nov-15 02:00 184 8.9
2019-Nov-15 01:46 184 8.9
2019-Nov-15 01:30 184 8.9
2019-Nov-15 01:15 186 8.9
2019-Nov-15 01:00 187 8.9
2019-Nov-15 00:46 187 8.9
2019-Nov-15 00:30 187 8.9
2019-Nov-15 00:15 187 9.4
2019-Nov-15 00:00 187 10.0
2019-Nov-14 23:45 187 10.0
2019-Nov-14 23:30 187 10.0
2019-Nov-14 23:15 186 10.6
2019-Nov-14 23:00 360 10.6
2019-Nov-14 22:45 360 10.6
2019-Nov-14 22:30 360 10.6
2019-Nov-14 22:15 360 11.1
2019-Nov-14 22:00 360 11.7
2019-Nov-14 21:45 360 11.1
2019-Nov-14 21:30 360 11.1
2019-Nov-14 21:01 360 11.1
2019-Nov-14 20:46 360 11.1
2019-Nov-14 20:31 360 11.7
2019-Nov-14 20:15 360 11.7
2019-Nov-14 20:01 360 11.1
2019-Nov-14 19:46 126 10.6
2019-Nov-14 19:30 017 10.0
2019-Nov-14 19:15 017 10.0
2019-Nov-14 19:00 017 9.4
2019-Nov-14 18:45 017 9.4
2019-Nov-14 18:30 017 8.9
2019-Nov-14 18:15 017 8.9
2019-Nov-14 18:01 018 8.3
2019-Nov-14 17:45 018 8.3
2019-Nov-14 17:30 018 7.8
2019-Nov-14 17:15 018 7.8
2019-Nov-14 16:45 018 7.2
2019-Nov-14 16:30 018 7.2
2019-Nov-14 16:15 343 6.7
2019-Nov-14 16:00 360 6.7
2019-Nov-14 15:45 360 6.7
2019-Nov-14 15:31 360 6.7
2019-Nov-14 15:17 360 6.7
2019-Nov-14 15:01 360 6.1
2019-Nov-14 14:46 360 6.7
2019-Nov-14 14:31 360 6.7
2019-Nov-14 14:17 360 6.7
2019-Nov-14 14:01 360 6.7
2019-Nov-14 13:47 360 6.7
2019-Nov-14 13:31 360 6.7
2019-Nov-14 13:17 360 6.7
2019-Nov-14 13:01 360 6.7
2019-Nov-14 12:46 360 6.7
2019-Nov-14 12:31 360 6.7
2019-Nov-14 12:17 360 6.7
2019-Nov-14 12:01 360 6.7
2019-Nov-14 11:46 360 7.2
2019-Nov-14 11:45 360 7.2
2019-Nov-14 11:31 360 7.2
2019-Nov-14 11:16 360 7.2
2019-Nov-14 11:01 360 7.2
2019-Nov-14 10:46 360 7.2
2019-Nov-14 10:31 360 7.2
2019-Nov-14 10:16 360 7.2
2019-Nov-14 10:01 360 7.2
2019-Nov-14 09:46 360 7.2
2019-Nov-14 09:31 360 7.2
2019-Nov-14 09:16 360 7.2
2019-Nov-14 09:01 360 7.2
2019-Nov-14 08:45 360 6.7
2019-Nov-14 08:30 360 6.7
2019-Nov-14 08:15 360 6.7
2019-Nov-14 08:01 360 6.7
2019-Nov-14 07:46 360 7.2
2019-Nov-14 07:30 360 7.2
2019-Nov-14 07:16 360 7.2
2019-Nov-14 07:01 360 7.2
2019-Nov-14 06:45 360 6.7
2019-Nov-14 06:30 360 7.2
2019-Nov-14 06:15 360 6.7
2019-Nov-14 06:00 360 6.7
2019-Nov-14 05:45 360 7.2
2019-Nov-14 05:31 360 7.2
2019-Nov-14 05:16 360 7.2
2019-Nov-14 05:01 360 7.2
2019-Nov-14 04:45 360 7.2
2019-Nov-14 04:30 360 7.2
2019-Nov-14 04:15 360 7.2
2019-Nov-14 04:01 360 6.7
2019-Nov-14 03:46 360 6.7
2019-Nov-14 03:30 360 7.2
2019-Nov-14 03:15 360 7.2
2019-Nov-14 03:00 360 7.2
2019-Nov-14 02:45 360 7.8
2019-Nov-14 02:30 360 7.8
2019-Nov-14 02:16 360 7.8
2019-Nov-14 02:01 360 7.8
2019-Nov-14 01:45 360 8.3
2019-Nov-14 01:30 360 8.3
2019-Nov-14 01:15 360 8.9
2019-Nov-14 01:00 005 8.9
2019-Nov-14 00:45 351 8.9
2019-Nov-14 00:30 351 8.9
2019-Nov-14 00:17 351 9.4
2019-Nov-14 00:03 351 9.4
2019-Nov-13 23:46 351 9.4
2019-Nov-13 23:31 331 9.4
2019-Nov-13 23:16 019 9.4
2019-Nov-13 23:02 346 10.0